sat.trackr.live / text

‹ back to catalog

STARLINK-32434

NORAD 61913 · 2024-207B

PAYLOAD ACTIVE UNKNOWN

§ Identity

Operator
Country
US
Launch date
2024-11-11
Launch site
AFETR
Launch vehicle
Mass (kg)
RCS (m²)

Purposes: comms

External: N2YO · Heavens-Above · Gunter

§ Orbital elements

Epoch: 2026-09-21T10:11:51.313344Z

Period
94.27 min
Inclination
43.0016°
Eccentricity
0.0000996
Mean motion
15.27589342 rev/d
Perigee alt
482.3 km
Apogee alt
483.7 km
Semi-major
6,861.2 km
B*
3.5378e-4
RAAN
256.6475°
Arg perigee
268.5093°
Mean anomaly
91.5645°
Rev number
10,465

§ Raw data

STARLINK-324341 61913U 24207B   26264.42489946  .00009488  00000+0  35378-3 0  99982 61913  43.0016 256.6475 0000996 268.5093  91.5645 15.27589342104650

JSON: /api/v1/satellites/61913 · /tle

For live sub-satellite position, see the globe view (requires WebGL).

§ Visibility from observer

Set your observer location to see the next 7 days of passes ≥ 10°. The values pass through the URL so the page stays shareable.

No JS? Fill the form by hand. The geolocation button needs JavaScript.